Location: Unnamed
(51.8936°N, 11.0665°E)
Time: 02:25:15
(UTC+02:00)

KAITUO 1B - Pass Details

Date: 01 October 2021
Orbit: 488 x 510 km, 97.4° (Epoch: 25 October)

Event Time Altitude Azimuth Distance (km) Brightness Sun altitude
Rises 20:09:29 0° 217° (SW) 2,590 ? -12.6°
Reaches altitude 10° 20:12:53 10° 252° (WSW) 1,708 ? -13.1°
Maximum altitude 20:14:11 12° 273° (W) 1,614 ? -13.3°
Drops below altitude 10° 20:15:29 10° 293° (WNW) 1,709 ? -13.5°
Sets 20:18:54 0° 328° (NNW) 2,594 ? -14.0°
